Time,TemperatureF,DewpointF,PressureIn,WindDirection,WindDirectionDegrees,WindSpeedMPH,WindSpeedGustMPH,Humidity,HourlyPrecipIn,Conditions,Clouds,dailyrainin,SoftwareType,DateUTC
2013-06-28 00:01:00,72.0,-99.9,-100.00,WNW,303,2.0,5.0,-999,-99.99,,,-99.99,,2013-06-28 07:01:00,
2013-06-28 00:12:00,72.0,-99.9,-100.00,WNW,303,2.0,5.0,-999,-99.99,,,-99.99,,2013-06-28 07:12:00,
2013-06-28 01:02:00,70.0,-99.9,-100.00,WNW,299,3.0,6.0,-999,-99.99,,,-99.99,,2013-06-28 08:02:00,
2013-06-28 01:11:00,70.0,-99.9,-100.00,WNW,299,3.0,6.0,-999,-99.99,,,-99.99,,2013-06-28 08:11:00,
2013-06-28 02:02:00,67.0,-99.9,-100.00,West,279,2.0,5.0,-999,-99.99,,,-99.99,,2013-06-28 09:02:00,
2013-06-28 02:12:00,67.0,-99.9,-100.00,West,279,2.0,5.0,-999,-99.99,,,-99.99,,2013-06-28 09:12:00,
2013-06-28 03:02:00,65.0,-99.9,-100.00,WSW,257,2.0,5.0,-999,-99.99,,,-99.99,,2013-06-28 10:02:00,
2013-06-28 03:12:00,65.0,-99.9,-100.00,WSW,257,2.0,5.0,-999,-99.99,,,-99.99,,2013-06-28 10:12:00,
2013-06-28 04:02:00,65.0,-99.9,-100.00,WSW,251,1.0,1.0,-999,-99.99,,,-99.99,,2013-06-28 11:02:00,
2013-06-28 04:11:00,65.0,-99.9,-100.00,WSW,251,1.0,1.0,-999,-99.99,,,-99.99,,2013-06-28 11:11:00,
2013-06-28 05:02:00,65.0,-99.9,-100.00,South,187,1.0,2.0,-999,-99.99,,,-99.99,,2013-06-28 12:02:00,
2013-06-28 05:12:00,65.0,-99.9,-100.00,South,187,1.0,2.0,-999,-99.99,,,-99.99,,2013-06-28 12:12:00,
2013-06-28 06:02:00,66.0,-99.9,-100.00,North,349,1.0,1.0,-999,-99.99,,,-99.99,,2013-06-28 13:02:00,
2013-06-28 06:11:00,66.0,-99.9,-100.00,North,349,1.0,1.0,-999,-99.99,,,-99.99,,2013-06-28 13:11:00,
2013-06-28 07:12:00,68.0,-99.9,-100.00,NNW,333,2.0,3.0,-999,-99.99,,,-99.99,,2013-06-28 14:12:00,
2013-06-28 08:02:00,73.0,-99.9,-100.00,NW,307,5.0,12.0,-999,-99.99,,,-99.99,,2013-06-28 15:02:00,
2013-06-28 08:11:00,73.0,-99.9,-100.00,NW,307,5.0,12.0,-999,-99.99,,,-99.99,,2013-06-28 15:11:00,
2013-06-28 09:02:00,77.0,-99.9,-100.00,NNW,348,6.0,12.0,-999,-99.99,,,-99.99,,2013-06-28 16:02:00,
2013-06-28 09:11:00,77.0,-99.9,-100.00,NNW,348,6.0,12.0,-999,-99.99,,,-99.99,,2013-06-28 16:11:00,
2013-06-28 10:02:00,79.0,-99.9,-100.00,North,353,3.0,10.0,-999,-99.99,,,-99.99,,2013-06-28 17:02:00,
2013-06-28 10:11:00,79.0,-99.9,-100.00,North,353,3.0,10.0,-999,-99.99,,,-99.99,,2013-06-28 17:11:00,
2013-06-28 11:02:00,81.0,-99.9,-100.00,NNE,24,3.0,12.0,-999,-99.99,,,-99.99,,2013-06-28 18:02:00,
2013-06-28 11:12:00,81.0,-99.9,-100.00,NNE,24,3.0,12.0,-999,-99.99,,,-99.99,,2013-06-28 18:12:00,
2013-06-28 12:01:00,84.0,-99.9,-100.00,NNW,338,3.0,10.0,-999,-99.99,,,-99.99,,2013-06-28 19:01:00,
2013-06-28 12:11:00,84.0,-99.9,-100.00,NNW,338,3.0,10.0,-999,-99.99,,,-99.99,,2013-06-28 19:11:00,
2013-06-28 13:02:00,86.0,-99.9,-100.00,NNW,340,3.0,12.0,-999,-99.99,,,-99.99,,2013-06-28 20:02:00,
2013-06-28 13:11:00,86.0,-99.9,-100.00,NNW,340,3.0,12.0,-999,-99.99,,,-99.99,,2013-06-28 20:11:00,
2013-06-28 14:02:00,88.0,-99.9,-100.00,NNW,338,3.0,13.0,-999,-99.99,,,-99.99,,2013-06-28 21:02:00,
2013-06-28 14:11:00,88.0,-99.9,-100.00,NNW,338,3.0,13.0,-999,-99.99,,,-99.99,,2013-06-28 21:11:00,
2013-06-28 15:01:00,90.0,-99.9,-100.00,North,11,6.0,22.0,-999,-99.99,,,-99.99,,2013-06-28 22:01:00,
2013-06-28 15:11:00,90.0,-99.9,-100.00,North,11,6.0,22.0,-999,-99.99,,,-99.99,,2013-06-28 22:11:00,
2013-06-28 16:02:00,92.0,-99.9,-100.00,NNW,327,3.0,10.0,-999,-99.99,,,-99.99,,2013-06-28 23:02:00,
2013-06-28 16:11:00,92.0,-99.9,-100.00,NNW,327,3.0,10.0,-999,-99.99,,,-99.99,,2013-06-28 23:11:00,
2013-06-28 17:02:00,93.0,-99.9,-100.00,NNE,23,6.0,12.0,-999,-99.99,,,-99.99,,2013-06-29 00:02:00,
2013-06-28 17:12:00,93.0,-99.9,-100.00,NNE,23,6.0,12.0,-999,-99.99,,,-99.99,,2013-06-29 00:12:00,
2013-06-28 18:01:00,95.0,-99.9,-100.00,NNE,28,2.0,9.0,-999,-99.99,,,-99.99,,2013-06-29 01:01:00,
2013-06-28 18:11:00,95.0,-99.9,-100.00,NNE,28,2.0,9.0,-999,-99.99,,,-99.99,,2013-06-29 01:11:00,
2013-06-28 19:01:00,94.0,-99.9,-100.00,NNE,25,3.0,9.0,-999,-99.99,,,-99.99,,2013-06-29 02:01:00,
2013-06-28 19:11:00,94.0,-99.9,-100.00,NNE,25,3.0,9.0,-999,-99.99,,,-99.99,,2013-06-29 02:11:00,
2013-06-28 20:01:00,94.0,-99.9,-100.00,NNE,13,3.0,10.0,-999,-99.99,,,-99.99,,2013-06-29 03:01:00,
2013-06-28 20:11:00,94.0,-99.9,-100.00,NNE,13,3.0,10.0,-999,-99.99,,,-99.99,,2013-06-29 03:11:00,
2013-06-28 21:01:00,91.0,-99.9,-100.00,North,5,6.0,10.0,-999,-99.99,,,-99.99,,2013-06-29 04:01:00,
2013-06-28 21:11:00,91.0,-99.9,-100.00,North,5,6.0,10.0,-999,-99.99,,,-99.99,,2013-06-29 04:11:00,
2013-06-28 22:01:00,85.0,-99.9,-100.00,North,5,2.0,6.0,-999,-99.99,,,-99.99,,2013-06-29 05:01:00,
2013-06-28 22:11:00,85.0,-99.9,-100.00,North,5,2.0,6.0,-999,-99.99,,,-99.99,,2013-06-29 05:11:00,
2013-06-28 23:02:00,80.0,-99.9,-100.00,WNW,291,3.0,5.0,-999,-99.99,,,-99.99,,2013-06-29 06:02:00,
2013-06-28 23:12:00,80.0,-99.9,-100.00,WNW,291,3.0,5.0,-999,-99.99,,,-99.99,,2013-06-29 06:12:00,